When you browse on this site, cookies collect data to enhance your experience and personalize the content and advertising you see.
Visit our Privacy Policy to learn more. By continuing to use the site, you agree to this use of cookies and data.
  • In Deutschland
  • Länderverzeichnis
  • Für 7 Tage
  • Wassertemperatur
  • Satellitenkarten
  • Wetterkarte
  • Widgets
  • user-avatar
    Anmelden

    Stündliche Wetter Etschmiadsin

    Heute, 19 Juli, Freitag

    Zeit Temperatur Niederschläge Wind Luftdruck Luftfeuchtigkeit
    00:00 +27°C° 0 mm 2 m/S 683 mmHg 36%
    01:00 +26°C° 0 mm 2 m/S 683 mmHg 39%
    02:00 +25°C° 0 mm 2 m/S 683 mmHg 42%
    03:00 +24°C° 0 mm 2 m/S 683 mmHg 46%
    04:00 +25°C° 0 mm 2 m/S 683 mmHg 46%
    05:00 +25°C° 0 mm 2 m/S 684 mmHg 47%
    06:00 +26°C° 0 mm 2 m/S 684 mmHg 47%
    07:00 +28°C° 0 mm 2 m/S 685 mmHg 42%
    08:00 +30°C° 0 mm 2 m/S 685 mmHg 37%
    09:00 +34°C° 0 mm 2 m/S 685 mmHg 33%
    10:00 +35°C° 0 mm 2 m/S 685 mmHg 28%
    11:00 +36°C° 0 mm 2 m/S 686 mmHg 24%
    12:00 +38°C° 0 mm 3 m/S 686 mmHg 20%
    13:00 +39°C° 0 mm 2 m/S 686 mmHg 19%
    14:00 +39°C° 0 mm 2 m/S 685 mmHg 17%
    15:00 +40°C° 0 mm 2 m/S 685 mmHg 16%
    16:00 +39°C° 0 mm 3 m/S 685 mmHg 20%
    17:00 +37°C° 0 mm 4 m/S 685 mmHg 25%
    18:00 +36°C° 0 mm 5 m/S 685 mmHg 29%
    19:00 +34°C° 0 mm 5 m/S 685 mmHg 37%
    20:00 +30°C° 0 mm 4 m/S 685 mmHg 44%
    21:00 +27°C° 0 mm 4 m/S 685 mmHg 52%
    22:00 +26°C° 0 mm 3 m/S 686 mmHg 54%
    23:00 +26°C° 0 mm 3 m/S 686 mmHg 57%

    Morgen, 20 Juli, Samstag

    Zeit Temperatur Niederschläge Wind Luftdruck Luftfeuchtigkeit
    00:00 +25°C° 0 mm 3 m/S 686 mmHg 59%
    01:00 +25°C° 0 mm 3 m/S 686 mmHg 61%
    02:00 +24°C° 0 mm 2 m/S 686 mmHg 62%
    03:00 +24°C° 0 mm 2 m/S 687 mmHg 64%
    04:00 +24°C° 0 mm 2 m/S 687 mmHg 62%
    05:00 +25°C° 0 mm 2 m/S 687 mmHg 60%
    06:00 +25°C° 0 mm 2 m/S 688 mmHg 59%
    07:00 +27°C° 0 mm 2 m/S 688 mmHg 53%
    08:00 +29°C° 0 mm 2 m/S 688 mmHg 47%
    09:00 +31°C° 0 mm 2 m/S 688 mmHg 41%
    10:00 +34°C° 0 mm 2 m/S 688 mmHg 37%
    11:00 +35°C° 0 mm 2 m/S 688 mmHg 32%
    12:00 +37°C° 0 mm 3 m/S 688 mmHg 28%
    13:00 +38°C° 0 mm 3 m/S 688 mmHg 26%
    14:00 +39°C° 0 mm 3 m/S 688 mmHg 24%
    15:00 +41°C° 0 mm 4 m/S 688 mmHg 22%
    16:00 +40°C° 0 mm 4 m/S 688 mmHg 25%
    17:00 +39°C° 0 mm 5 m/S 688 mmHg 29%
    18:00 +37°C° 0 mm 5 m/S 688 mmHg 32%
    19:00 +35°C° 0 mm 5 m/S 688 mmHg 39%
    20:00 +33°C° 0 mm 5 m/S 688 mmHg 45%
    21:00 +29°C° 0 mm 5 m/S 688 mmHg 52%
    22:00 +28°C° 0 mm 4 m/S 688 mmHg 54%
    23:00 +27°C° 0 mm 3 m/S 688 mmHg 56%

    übermorgen, 21 Juli, Sonntag

    Zeit Temperatur Niederschläge Wind Luftdruck Luftfeuchtigkeit
    00:00 +26°C° 0 mm 3 m/S 688 mmHg 58%
    01:00 +26°C° 0 mm 2 m/S 688 mmHg 60%
    02:00 +25°C° 0 mm 2 m/S 688 mmHg 61%
    03:00 +24°C° 0 mm 2 m/S 687 mmHg 63%
    04:00 +25°C° 0 mm 2 m/S 688 mmHg 60%
    05:00 +25°C° 0 mm 1 m/S 688 mmHg 57%
    06:00 +26°C° 0 mm 1 m/S 688 mmHg 55%
    07:00 +28°C° 0 mm 1 m/S 688 mmHg 48%
    08:00 +30°C° 0 mm 2 m/S 688 mmHg 40%
    09:00 +34°C° 0 mm 2 m/S 688 mmHg 33%
    10:00 +36°C° 0 mm 3 m/S 689 mmHg 28%
    11:00 +38°C° 0 mm 4 m/S 689 mmHg 24%
    12:00 +41°C° 0 mm 4 m/S 689 mmHg 19%
    13:00 +42°C° 0 mm 5 m/S 688 mmHg 18%
    14:00 +42°C° 0 mm 6 m/S 688 mmHg 16%
    15:00 +44°C° 0 mm 6 m/S 687 mmHg 15%
    16:00 +42°C° 0 mm 6 m/S 687 mmHg 18%
    17:00 +42°C° 0 mm 6 m/S 687 mmHg 22%
    18:00 +41°C° 0 mm 5 m/S 687 mmHg 25%
    19:00 +37°C° 0 mm 5 m/S 687 mmHg 30%
    20:00 +35°C° 0 mm 4 m/S 687 mmHg 34%
    21:00 +32°C° 0 mm 4 m/S 687 mmHg 39%
    22:00 +30°C° 0 mm 3 m/S 687 mmHg 42%
    23:00 +28°C° 0 mm 3 m/S 687 mmHg 46%

    22 Juli, Montag

    Zeit Temperatur Niederschläge Wind Luftdruck Luftfeuchtigkeit
    00:00 +27°C° 0 mm 3 m/S 686 mmHg 49%
    01:00 +26°C° 0 mm 3 m/S 686 mmHg 51%
    02:00 +26°C° 0 mm 2 m/S 686 mmHg 53%
    03:00 +25°C° 0 mm 2 m/S 686 mmHg 54%
    04:00 +25°C° 0 mm 2 m/S 686 mmHg 53%
    05:00 +26°C° 0 mm 2 m/S 686 mmHg 51%
    06:00 +27°C° 0 mm 1 m/S 686 mmHg 50%
    07:00 +29°C° 0 mm 1 m/S 686 mmHg 43%
    08:00 +31°C° 0 mm 1 m/S 686 mmHg 37%
    09:00 +35°C° 0 mm 2 m/S 687 mmHg 30%
    10:00 +37°C° 0 mm 2 m/S 686 mmHg 27%
    11:00 +38°C° 0 mm 2 m/S 686 mmHg 23%
    12:00 +40°C° 0 mm 2 m/S 686 mmHg 20%
    13:00 +41°C° 0 mm 2 m/S 686 mmHg 18%
    14:00 +42°C° 0 mm 2 m/S 686 mmHg 16%
    15:00 +43°C° 0 mm 2 m/S 685 mmHg 15%
    16:00 +44°C° 0 mm 3 m/S 685 mmHg 18%
    17:00 +43°C° 0 mm 4 m/S 685 mmHg 20%
    18:00 +42°C° 0 mm 5 m/S 685 mmHg 23%
    19:00 +39°C° 0 mm 5 m/S 685 mmHg 30%
    20:00 +35°C° 0 mm 5 m/S 685 mmHg 37%
    21:00 +32°C° 0 mm 4 m/S 685 mmHg 45%
    22:00 +30°C° 0 mm 4 m/S 684 mmHg 47%
    23:00 +28°C° 0 mm 4 m/S 684 mmHg 50%

    23 Juli, Dienstag

    Zeit Temperatur Niederschläge Wind Luftdruck Luftfeuchtigkeit
    00:00 +27°C° 0 mm 4 m/S 684 mmHg 52%
    01:00 +27°C° 0 mm 3 m/S 684 mmHg 54%
    02:00 +26°C° 0 mm 3 m/S 684 mmHg 56%
    03:00 +25°C° 0 mm 2 m/S 684 mmHg 58%
    04:00 +26°C° 0 mm 2 m/S 684 mmHg 56%
    05:00 +26°C° 0 mm 2 m/S 684 mmHg 55%
    06:00 +27°C° 0 mm 2 m/S 684 mmHg 53%
    07:00 +29°C° 0 mm 2 m/S 684 mmHg 47%
    08:00 +31°C° 0 mm 2 m/S 684 mmHg 41%
    09:00 +34°C° 0 mm 2 m/S 685 mmHg 35%
    10:00 +36°C° 0 mm 2 m/S 684 mmHg 32%
    11:00 +37°C° 0 mm 2 m/S 684 mmHg 28%
    12:00 +39°C° 0 mm 2 m/S 684 mmHg 24%
    13:00 +40°C° 0 mm 2 m/S 684 mmHg 23%
    14:00 +41°C° 0 mm 2 m/S 683 mmHg 22%
    15:00 +41°C° 0 mm 2 m/S 683 mmHg 21%
    16:00 +41°C° 0 mm 4 m/S 683 mmHg 26%
    17:00 +40°C° 0 mm 5 m/S 683 mmHg 30%
    18:00 +38°C° 0 mm 7 m/S 683 mmHg 34%
    19:00 +35°C° 0 mm 6 m/S 683 mmHg 40%
    20:00 +32°C° 0 mm 5 m/S 683 mmHg 46%
    21:00 +29°C° 0 mm 4 m/S 683 mmHg 53%
    22:00 +28°C° 0 mm 3 m/S 683 mmHg 54%
    23:00 +27°C° 0 mm 3 m/S 683 mmHg 56%

    24 Juli, Mittwoch

    Zeit Temperatur Niederschläge Wind Luftdruck Luftfeuchtigkeit
    00:00 +27°C° 0 mm 3 m/S 683 mmHg 57%
    01:00 +26°C° 0 mm 2 m/S 683 mmHg 58%
    02:00 +26°C° 0 mm 2 m/S 683 mmHg 59%
    03:00 +25°C° 0 mm 2 m/S 683 mmHg 60%
    04:00 +26°C° 0 mm 2 m/S 683 mmHg 59%
    05:00 +26°C° 0 mm 1 m/S 683 mmHg 57%
    06:00 +27°C° 0 mm 1 m/S 683 mmHg 56%
    07:00 +29°C° 0 mm 1 m/S 684 mmHg 50%
    08:00 +31°C° 0 mm 1 m/S 684 mmHg 44%
    09:00 +33°C° 0 mm 1 m/S 684 mmHg 38%
    10:00 +36°C° 0 mm 2 m/S 684 mmHg 32%
    11:00 +38°C° 0 mm 2 m/S 684 mmHg 25%
    12:00 +40°C° 0 mm 3 m/S 684 mmHg 19%
    13:00 +42°C° 0 mm 3 m/S 684 mmHg 16%
    14:00 +43°C° 0 mm 4 m/S 684 mmHg 13%
    15:00 +45°C° 0 mm 4 m/S 684 mmHg 10%
    16:00 +45°C° 0 mm 5 m/S 684 mmHg 10%
    17:00 +45°C° 0 mm 5 m/S 684 mmHg 10%
    18:00 +44°C° 0 mm 6 m/S 684 mmHg 10%
    19:00 +40°C° 0 mm 5 m/S 684 mmHg 15%
    20:00 +35°C° 0 mm 4 m/S 683 mmHg 19%
    21:00 +31°C° 0 mm 3 m/S 683 mmHg 24%
    22:00 +30°C° 0 mm 3 m/S 683 mmHg 27%
    23:00 +29°C° 0 mm 2 m/S 683 mmHg 30%
    Mehr zeigen